[Date Prev][Date Next][Thread Prev][Thread Next] - [Date Index][Thread Index][Author Index]
2 Line ISS Keps 12-14
- Subject: [sarex] 2 Line ISS Keps 12-14
- From: "Dave Larsen PhD" <doc@xxxxxxxxxxx>
- Date: Sun, 14 Dec 2003 02:13:50 -0800
ISS
1 25544U 98067A 03348.19236111 .00011876 00000-0 12110-3 0 8903
2 25544 51.6278 191.8095 0006049 245.7827 266.9918 15.65565420289142
----
Via the sarex mailing list at AMSAT.ORG courtesy of AMSAT-NA.
To unsubscribe, send "unsubscribe sarex" to Majordomo@amsat.org
AMSAT Home